This is the latest recevied weather packets stored in our database for station/object KD4EED. If no packets are shown the sender has not sent any weather packets the latest 1 day(s).
| Time | Temp. | Humidity | Pressure | Rain* | Wind** | Luminosity | Snow |
|---|---|---|---|---|---|---|---|
| 1778049155 | 13.33° C | 81% | 1014.9 hPa | - | - | 0 W/m² | - |
| 1778048550 | 13.33° C | 80% | 1014.6 hPa | - | - | 0 W/m² | - |
| 1778048246 | 13.33° C | 81% | 1014.7 hPa | - | - | 0 W/m² | - |
| 1778047944 | 13.33° C | 80% | 1014.7 hPa | - | - | 0 W/m² | - |
| 1778047339 | 13.33° C | 80% | 1014.7 hPa | - | - | 0 W/m² | - |
| 1778046733 | 13.33° C | 80% | 1014.6 hPa | - | - | 0 W/m² | - |
| 1778045522 | 13.89° C | 79% | 1014.6 hPa | - | - | 0 W/m² | - |
| 1778044917 | 13.89° C | 79% | 1014.5 hPa | - | - | 0 W/m² | - |
| 1778044311 | 13.89° C | 78% | 1014.2 hPa | - | - | 0 W/m² | - |
| 1778044009 | 13.89° C | 78% | 1014.2 hPa | - | - | 0 W/m² | - |
| 1778043706 | 14.44° C | 78% | 1014.1 hPa | - | - | 0 W/m² | - |
| 1778043402 | 14.44° C | 78% | 1014 hPa | - | - | 0 W/m² | - |
| 1778043099 | 14.44° C | 78% | 1014 hPa | - | - | 0 W/m² | - |
| 1778042797 | 14.44° C | 78% | 1014.1 hPa | - | - | 0 W/m² | - |
| 1778042494 | 14.44° C | 78% | 1013.8 hPa | - | - | 0 W/m² | - |
| 1778042191 | 14.44° C | 77% | 1013.9 hPa | - | - | 0 W/m² | - |
| 1778041889 | 14.44° C | 77% | 1013.7 hPa | - | - | 0 W/m² | - |
| 1778041285 | 15° C | 75% | 1013.6 hPa | - | - | 0 W/m² | - |
| 1778040984 | 15° C | 74% | 1013.6 hPa | - | - | 0 W/m² | - |
| 1778040680 | 15° C | 74% | 1013.6 hPa | - | - | 0 W/m² | - |
| 1778040378 | 15° C | 74% | 1013.7 hPa | - | - | 0 W/m² | - |
| 1778039771 | 15.56° C | 74% | 1013.5 hPa | - | - | 0 W/m² | - |
| 1778039468 | 15.56° C | 73% | 1013.5 hPa | - | - | 0 W/m² | - |
| 1778038862 | 15.56° C | 75% | 1013.1 hPa | - | - | 0 W/m² | - |
| 1778038256 | 15.56° C | 72% | 1013 hPa | - | - | 0 W/m² | - |
* Rain since midnight (hover to see other rain measurements)
** Current wind speed in m/s (hover to see current wind gust speed)